SHFT 1 (GOERGEN) (43860 NORAD) Tracking and Keplerian Element Data

This shows tracking and keplerian element data for the satellite.

Feedback or suggestion? Click here.




ElementValue
Catalog43860
NameSHFT 1 (GOERGEN)
Epoch Orbit438
Epoch Day14.18793
Epoch Year2019
RAAN159.2387
Inclination85.0338
Eccentricity0.0014251
Argument of Perigee171.5817
Mean Anonmoly188.5916
Mean Motion15.20782389
Decay Rate4.1E-07
L11 43860U 18104M 19014.18793000 .00000041 00000-0 00000+0 0 9992
L22 43860 85.0338 159.2387 0014251 171.5817 188.5916 15.20782389 4386

Live tracking and technical data element details for SHFT 1 (GOERGEN) (NORAD 43860). SHFT 1 (GOERGEN) can be tracked NOW for your location showing map with azimuth and elevation plus other details from your city location.

Track the satellite on the map from your city or location and see movement details for azimuth, elevation, latitude, longitude, range, height, and movement on the map or in text.







IsCatalogInMostPopularTable: catalog: 43860, numindb: 90
Update: records affected: 1



GetName: 43860 SHFT 1 (GOERGEN)

Hit Count: updated at: Mon, 17 Jun 2019 05:01:03 GMT